Location: *
(49.3500°N, 12.6000°E)
Time: 15:57:20
(UTC+00:00)

STARLINK-53 - Pass Details

Date: 18 October 2019
Orbit: 550 x 552 km, 53.0° (Epoch: 14 November)

Event Time Altitude Azimuth Distance (km) Brightness Sun altitude
Rises 17:34:49 0° 264° (W) 2,718 9.1 -13.9°
Reaches altitude 10° 17:37:04 10° 268° (W) 1,826 7.7 -14.2°
Maximum altitude 17:41:10 57° 348° (NNW) 651 4.0 -14.9°
Enters shadow 17:43:33 23° 60° (ENE) 1,189 4.8 -15.3°
